CW3157 Weather Reports


time (UTC)temp
C
wind
direction
speed
KPH
gust
KPH
rain 1hr
cm
rain 24hr
cm
rain mn
cm
humidity
%
barometer
mb
20260505153313 25 213 3.2 30.6 0.00 0.00 0.00 45 1010.2
20260505152813 25 261 9.7 30.6 0.00 0.00 0.00 39 1010.3
20260505152313 25 171 12.9 22.5 0.00 0.00 0.00 42 1010.2
20260505151813 25 182 12.9 17.7 0.00 0.00 0.00 42 1010.3
20260505151313 25 189 4.8 17.7 0.00 0.00 0.00 42 1010.3
20260505150813 24 308 6.4 16.1 0.00 0.00 0.00 44 1010.3
20260505150313 24 235 4.8 20.9 0.00 0.00 0.00 45 1010.3
20260505140313 22 5 3.2 16.1 0.00 0.00 0.00 48 1010.7
20260505124813 18 238 3.2 16.1 0.00 0.00 0.00 60 1011.2
20260505124313 18 250 3.2 16.1 0.00 0.00 0.00 58 1011.2
20260505123813 18 229 6.4 11.3 0.00 0.00 0.00 61 1011.1
20260505122813 18 259 3.2 14.5 0.00 0.00 0.00 62 1010.9
20260505122313 17 222 6.4 14.5 0.00 0.00 0.00 60 1010.7
20260505121813 17 233 6.4 14.5 0.00 0.00 0.00 62 1010.8
20260505121313 17 201 4.8 14.5 0.00 0.00 0.00 61 1010.8
20260505120313 17 303 6.4 14.5 0.00 0.00 0.00 63 1010.8
20260505115813 17 238 1.6 14.5 0.00 0.00 0.00 65 1010.7
20260505115313 17 253 1.6 11.3 0.00 0.00 0.00 62 1010.8
20260505114813 17 248 4.8 8.0 0.00 0.00 0.00 65 1010.6
20260505114313 16 197 3.2 8.0 0.00 0.00 0.00 65 1010.6
20260505113813 16 200 4.8 11.3 0.00 0.00 0.00 71 1010.7
20260505113313 15 264 0.0 11.3 0.00 0.00 0.00 75 1010.6
20260505112313 13 194 0.0 4.8 0.00 0.00 0.00 78 1010.5
20260505111813 13 194 3.2 3.2 0.00 0.00 0.00 80 1010.4
20260505111313 13 194 0.0 1.6 0.00 0.00 0.00 82 1010.3
20260505110813 12 194 0.0 3.2 0.00 0.00 0.00 82 1010.3
20260505110313 12 194 0.0 3.2 0.00 0.00 0.00 83 1010.2
20260505101813 9 292 1.6 4.8 0.00 0.00 0.00 85 1010.0
20260505101313 9 292 3.2 6.4 0.00 0.00 0.00 85 1009.9
20260505100813 10 292 4.8 6.4 0.00 0.00 0.00 85 1009.9
20260505100313 9 292 0.0 4.8 0.00 0.00 0.00 85 1009.9
20260505095313 10 292 1.6 3.2 0.00 0.00 0.00 85 1009.9
20260505094813 10 292 0.0 3.2 0.00 0.00 0.00 84 1010.0
20260505094313 10 292 3.2 3.2 0.00 0.00 0.00 84 1010.0
20260505093813 10 292 0.0 3.2 0.00 0.00 0.00 84 1009.9
20260505093313 10 292 1.6 3.2 0.00 0.00 0.00 84 1010.0
20260505092813 10 292 0.0 0.0 0.00 0.00 0.00 84 1010.0
20260505092313 10 292 0.0 3.2 0.00 0.00 0.00 84 1010.0
20260505091813 11 292 0.0 3.2 0.00 0.00 0.00 84 1010.0
20260505090813 11 292 3.2 4.8 0.00 0.00 0.00 82 1010.0
20260505090313 11 292 1.6 1.6 0.00 0.00 0.00 83 1010.0
20260505085813 11 292 0.0 4.8 0.00 0.00 0.00 81 1009.9
20260505085313 11 292 0.0 4.8 0.00 0.00 0.00 82 1010.0
20260505084813 12 292 0.0 4.8 0.00 0.00 0.00 80 1009.9
20260505083813 12 292 0.0 4.8 0.00 0.00 0.00 79 1009.8
20260505083313 11 292 3.2 3.2 0.00 0.00 0.00 79 1009.8
20260505082313 12 292 0.0 3.2 0.00 0.00 0.00 79 1009.8
20260505081813 11 292 3.2 3.2 0.00 0.00 0.00 79 1009.8
20260505081313 11 292 0.0 3.2 0.00 0.00 0.00 79 1009.8
20260505080813 12 292 1.6 4.8 0.00 0.00 0.00 79 1009.7
20260505080313 12 292 1.6 4.8 0.00 0.00 0.00 77 1009.7
20260505075813 12 292 3.2 4.8 0.00 0.00 0.00 78 1009.9
20260505075313 12 292 3.2 3.2 0.00 0.00 0.00 78 1009.8
20260505074813 12 292 0.0 3.2 0.00 0.00 0.00 76 1009.8
20260505073313 12 292 1.6 3.2 0.00 0.00 0.00 77 1010.0
20260505072813 12 292 0.0 3.2 0.00 0.00 0.00 75 1010.0
20260505072313 12 292 1.6 3.2 0.00 0.00 0.00 76 1010.0
20260505071313 12 292 0.0 4.8 0.00 0.00 0.00 75 1010.0
20260505070813 12 292 3.2 4.8 0.00 0.00 0.00 75 1010.0
20260505070313 12 292 0.0 4.8 0.00 0.00 0.00 76 1010.1
20260505065813 12 292 1.6 4.8 0.00 0.00 0.00 76 1010.1
20260505065313 12 292 1.6 4.8 0.00 0.00 0.00 75 1010.0
20260505064813 12 292 1.6 3.2 0.00 0.00 0.00 73 1010.0
20260505064313 12 292 0.0 3.2 0.00 0.00 0.00 72 1010.0
20260505063813 12 292 1.6 4.8 0.00 0.00 0.00 72 1010.1
20260505063313 12 292 0.0 4.8 0.00 0.00 0.00 72 1010.1
20260505062813 12 292 0.0 4.8 0.00 0.00 0.00 72 1010.1
20260505062313 12 224 0.0 6.4 0.00 0.00 0.00 70 1010.1
20260505061813 12 224 1.6 6.4 0.00 0.00 0.00 68 1010.1
20260505061313 12 248 0.0 6.4 0.00 0.00 0.00 68 1010.1
20260505060813 12 248 4.8 9.7 0.00 0.00 0.00 68 1010.0
20260505060313 12 247 3.2 9.7 0.00 0.00 0.00 69 1010.1
20260505055813 12 272 3.2 4.8 0.00 0.00 0.00 69 1010.0
20260505055313 12 272 0.0 4.8 0.00 0.00 0.00 67 1010.1
20260505054813 12 272 3.2 6.4 0.00 0.00 0.00 67 1010.0
20260505054313 12 227 0.0 6.4 0.00 0.00 0.00 68 1010.1
20260505053813 12 67 1.6 9.7 0.00 0.00 0.00 67 1010.1
20260505052813 12 246 1.6 6.4 0.00 0.00 0.00 67 1010.0
20260505052313 13 246 1.6 6.4 0.00 0.00 0.00 64 1010.0
20260505051813 13 248 4.8 6.4 0.00 0.00 0.00 64 1010.0
20260505050813 12 156 4.8 8.0 0.00 0.00 0.00 66 1010.0
20260505050313 12 147 1.6 6.4 0.00 0.00 0.00 67 1010.1
20260505041313 12 186 3.2 6.4 0.00 0.00 0.00 67 1010.0
20260505040813 12 194 0.0 9.7 0.00 0.00 0.00 67 1010.1
20260505040313 11 194 4.8 9.7 0.00 0.00 0.00 70 1010.0
20260505035813 11 194 3.2 4.8 0.00 0.00 0.00 70 1009.9
20260505035313 11 194 3.2 6.4 0.00 0.00 0.00 71 1009.9
20260505034813 11 194 3.2 6.4 0.00 0.00 0.00 70 1009.9
20260505034313 11 96 0.0 3.2 0.00 0.00 0.00 69 1009.8
20260505033813 11 96 0.0 4.8 0.00 0.00 0.00 68 1009.8
20260505033313 11 96 1.6 4.8 0.00 0.00 0.00 69 1009.7
20260505032813 11 100 0.0 3.2 0.00 0.00 0.00 68 1009.8
20260505032313 12 100 1.6 4.8 0.00 0.00 0.00 66 1009.8
20260505031813 12 96 3.2 4.8 0.00 0.00 0.00 66 1009.9
20260505031313 12 96 0.0 4.8 0.00 0.00 0.00 63 1009.8
20260505030813 12 96 3.2 4.8 0.00 0.00 0.00 65 1009.8
20260505030313 13 123 1.6 4.8 0.00 0.00 0.00 63 1009.9
20260505025813 13 123 0.0 6.4 0.00 0.00 0.00 62 1009.9
20260505025313 13 129 0.0 6.4 0.00 0.00 0.00 64 1009.9
20260505023813 15 253 0.0 6.4 0.00 0.00 0.00 54 1009.9
20260505023313 13 258 1.6 4.8 0.00 0.00 0.00 59 1009.9
20260505022813 13 259 0.0 9.7 0.00 0.00 0.00 62 1010.1
20260505022313 13 259 0.0 9.7 0.00 0.00 0.00 61 1010.2
20260505021313 13 223 0.0 8.0 0.00 0.00 0.00 62 1010.2
20260505020813 13 223 0.0 8.0 0.00 0.00 0.00 63 1010.2
20260505020313 13 205 0.0 3.2 0.00 0.00 0.00 61 1010.3
20260505015813 13 205 0.0 4.8 0.00 0.00 0.00 62 1010.3
20260505015313 13 205 1.6 8.0 0.00 0.00 0.00 62 1010.2
20260505014813 13 205 3.2 8.0 0.00 0.00 0.00 61 1010.1
20260505014313 13 221 4.8 4.8 0.00 0.00 0.00 61 1010.1
20260505013813 14 252 1.6 4.8 0.00 0.00 0.00 59 1010.1
20260505013313 15 252 0.0 11.3 0.00 0.00 0.00 56 1010.1
20260505012813 14 252 4.8 11.3 0.00 0.00 0.00 60 1010.0
20260505012313 14 256 0.0 4.8 0.00 0.00 0.00 59 1010.0
20260505011813 15 256 3.2 8.0 0.00 0.00 0.00 56 1010.0
20260505011313 14 256 1.6 8.0 0.00 0.00 0.00 57 1009.8
20260505010813 14 244 1.6 6.4 0.00 0.00 0.00 58 1009.8
20260505010313 13 244 0.0 6.4 0.00 0.00 0.00 59 1009.7
20260505005313 15 212 1.6 8.0 0.00 0.00 0.00 57 1009.6
20260505004813 15 265 1.6 4.8 0.00 0.00 0.00 55 1009.5
20260505004313 15 265 1.6 4.8 0.00 0.00 0.00 54 1009.6
20260505003313 16 265 1.6 6.4 0.00 0.00 0.00 51 1009.5
20260505002813 16 240 1.6 9.7 0.00 0.00 0.00 49 1009.5
20260505002313 16 223 0.0 9.7 0.00 0.00 0.00 49 1009.5
20260505001813 15 227 9.7 9.7 0.00 0.00 0.00 52 1009.5
20260505000813 16 244 1.6 3.2 0.00 0.00 0.00 52 1009.3
20260504235313 17 250 6.4 9.7 0.00 0.00 0.00 47 1009.3
20260504234313 17 202 1.6 6.4 0.00 0.00 0.00 47 1009.3
20260504233813 17 288 0.0 9.7 0.00 0.00 0.00 47 1009.2
20260504233313 17 90 3.2 9.7 0.00 0.00 0.00 43 1009.2
20260504232813 18 213 0.0 8.0 0.00 0.00 0.00 42 1009.2
20260504232313 18 213 1.6 11.3 0.00 0.00 0.00 42 1009.1
20260504231313 19 209 6.4 24.1 0.00 0.00 0.00 41 1009.2
20260504230813 19 186 8.0 9.7 0.00 0.00 0.00 43 1009.2
20260504230313 19 213 0.0 6.4 0.00 0.00 0.00 43 1009.1
20260504225813 19 255 1.6 8.0 0.00 0.00 0.00 40 1009.2
20260504225313 19 198 6.4 12.9 0.00 0.00 0.00 42 1008.8
20260504224313 20 214 3.2 9.7 0.00 0.00 0.00 38 1008.8
20260504223813 20 274 1.6 9.7 0.00 0.00 0.00 39 1008.8
20260504223313 20 244 1.6 11.3 0.00 0.00 0.00 39 1008.7
20260504222313 20 186 3.2 17.7 0.00 0.00 0.00 39 1008.7
20260504221813 20 242 1.6 14.5 0.00 0.00 0.00 41 1008.8
20260504221313 20 248 4.8 30.6 0.00 0.00 0.00 38 1008.9
20260504220813 20 253 4.8 30.6 0.00 0.00 0.00 38 1008.8
20260504220313 21 261 9.7 14.5 0.00 0.00 0.00 40 1008.9
20260504215813 21 152 6.4 16.1 0.00 0.00 0.00 37 1008.8
20260504215313 21 215 9.7 16.1 0.00 0.00 0.00 37 1008.8
20260504213813 21 197 1.6 20.9 0.00 0.00 0.00 36 1008.7
20260504213313 21 258 1.6 12.9 0.00 0.00 0.00 39 1008.8
20260504212813 21 285 1.6 17.7 0.00 0.00 0.00 36 1008.9
20260504211813 22 259 1.6 16.1 0.00 0.00 0.00 36 1008.9
20260504211313 22 112 1.6 19.3 0.00 0.00 0.00 33 1008.8
20260504210813 22 260 6.4 19.3 0.00 0.00 0.00 33 1008.9
20260504210313 21 255 8.0 20.9 0.00 0.00 0.00 34 1008.9
20260504205813 22 225 11.3 20.9 0.00 0.00 0.00 33 1008.7
20260504205313 22 284 6.4 22.5 0.00 0.00 0.00 33 1008.9
20260504204812 22 275 9.7 22.5 0.00 0.00 0.00 34 1008.9
20260504204313 22 261 3.2 22.5 0.00 0.00 0.00 33 1009.0
20260504203812 22 236 4.8 27.4 0.00 0.00 0.00 41 1009.0
20260504203313 22 333 6.4 27.4 0.00 0.00 0.00 34 1009.0
20260504202813 22 235 3.2 24.1 0.00 0.00 0.00 35 1009.1
20260504202312 21 232 3.2 25.7 0.00 0.00 0.00 34 1009.1
20260504201813 22 273 6.4 25.7 0.00 0.00 0.00 38 1009.3
20260504201313 22 256 3.2 14.5 0.00 0.00 0.00 39 1009.2
20260504200813 22 249 4.8 19.3 0.00 0.00 0.00 35 1009.3
20260504195812 21 180 3.2 14.5 0.00 0.00 0.00 35 1009.3
20260504195312 22 290 3.2 19.3 0.00 0.00 0.00 34 1009.4
20260504194813 21 41 6.4 27.4 0.00 0.00 0.00 40 1009.4
20260504194313 20 272 6.4 27.4 0.00 0.00 0.00 37 1009.6
20260504193813 21 233 6.4 22.5 0.00 0.00 0.00 35 1009.5
20260504193312 22 207 22.5 25.7 0.00 0.00 0.00 37 1009.6
20260504192813 22 295 4.8 25.7 0.00 0.00 0.00 34 1009.7
20260504192312 21 241 14.5 24.1 0.00 0.00 0.00 35 1009.8
20260504191813 21 243 4.8 19.3 0.00 0.00 0.00 35 1009.8
20260504191313 21 274 1.6 20.9 0.00 0.00 0.00 33 1009.8
20260504190813 22 298 8.0 22.5 0.00 0.00 0.00 35 1009.9
20260504190313 21 348 3.2 22.5 0.00 0.00 0.00 36 1009.9
20260504185812 21 231 16.1 17.7 0.00 0.00 0.00 37 1010.0
20260504185313 21 197 1.6 19.3 0.00 0.00 0.00 36 1010.2
20260504184813 22 215 14.5 20.9 0.00 0.00 0.00 35 1010.3
20260504184313 21 232 3.2 20.9 0.00 0.00 0.00 36 1010.3
20260504183813 21 245 4.8 16.1 0.00 0.00 0.00 39 1010.3
20260504183312 21 185 6.4 20.9 0.00 0.00 0.00 36 1010.3
20260504182812 21 227 6.4 20.9 0.00 0.00 0.00 36 1010.5
20260504182312 22 273 4.8 19.3 0.00 0.00 0.00 35 1010.4
20260504181813 21 260 6.4 22.5 0.00 0.00 0.00 37 1010.6
20260504181313 21 255 12.9 22.5 0.00 0.00 0.00 38 1010.6
20260504180813 21 360 16.1 19.3 0.00 0.00 0.00 37 1010.7
20260504180313 21 267 6.4 19.3 0.00 0.00 0.00 35 1010.8
20260504175313 21 349 6.4 19.3 0.00 0.00 0.00 36 1010.9
20260504174813 21 182 16.1 19.3 0.00 0.00 0.00 38 1010.9
20260504174312 21 257 8.0 19.3 0.00 0.00 0.00 38 1011.0
20260504173313 21 225 6.4 22.5 0.00 0.00 0.00 35 1011.2
20260504172813 21 299 4.8 20.9 0.00 0.00 0.00 37 1011.3
20260504171812 21 338 14.5 24.1 0.00 0.00 0.00 39 1011.5
20260504171313 20 269 14.5 24.1 0.00 0.00 0.00 34 1011.6
20260504170812 20 237 24.1 24.1 0.00 0.00 0.00 40 1011.6
20260504170313 20 321 14.5 22.5 0.00 0.00 0.00 38 1011.8
20260504160313 20 189 9.7 19.3 0.00 0.00 0.00 38 1012.4